Trinidad, CO

8:34 AM MDT on April 28, 2017 (GMT -0600)
Stokes

Weather History for KTAD - June, 2012

Change the Weather History Date:

Sunday, June 17, 2012

  Actual Average Record
Temperature  
Mean Temperature 77 °F 69 °F  
Max Temperature 96 °F 85 °F 97 °F (1960)
Min Temperature 57 °F 53 °F 42 °F (1962)
Degree Days  
Heating Degree Days 0 1  
Month to date heating degree days 2 34  
Since 1 June heating degree days 2 34  
Since 1 July heating degree days 4735 5529  
Cooling Degree Days 12 5  
Month to date cooling degree days 119 58  
Year to date cooling degree days 165 86  
Since 1 June cooling degree days 119 58  
Growing Degree Days 27 (Base 50)    
Moisture  
Dew Point 29 °F    
Average Humidity 29    
Maximum Humidity 51    
Minimum Humidity 7    
Precipitation  
Precipitation 0.00 in 0.04 in 1.48 in (1965)
Month to date precipitation 0.01  
Snow  
Snow 0.00 in - - ()
Month to date snowfall 0.0  
Since 1 June snowfall 0.0  
Snow Depth 0.00 in    
Sea Level Pressure  
Sea Level Pressure 29.75 in    
Wind  
Wind Speed 12 mph (West)    
Max Wind Speed 24 mph    
Max Gust Speed 33 mph    
Visibility 10 miles    
Events      
T = Trace of Precipitation, MM = Missing Value Source: NWS Daily Summary

Daily Weather History Graph

Daily Weather History Graph

Search for Another Location

Airport or City:

Trip Planner

Search our weather history database for the weather conditions in past years. The results will help you decide how hot, cold, wet, or windy it might be!

Date:

Astronomy

Jun. 17, 2012 Rise Set
Actual Time 5:36 AM MDT 8:20 PM MDT
Civil Twilight 5:05 AM MDT 8:51 PM MDT
Nautical Twilight 4:26 AM MDT 9:30 PM MDT
Astronomical Twilight 3:43 AM MDT 10:13 PM MDT
Moon 4:06 AM MDT (6/17) 6:51 PM MDT (6/17)
Length of Visible Light 15h 45m
Length of Day
14h 43m
Waning Crescent, 3% of the Moon is Illuminated
Jun 17
Waning Crescent
Jun 19
New
Jun 26
First Quarter
Jul 3
Full
Jul 10
Last Quarter

Hourly Weather History & Observations

Time (MDT) Temp. Dew Point Humidity Pressure Visibility Wind Dir Wind Speed Gust Speed Precip Events Conditions
12:54 AM 59.0 °F 41.0 °F 51% 29.98 in 10.0 mi SSW 6.9 mph - N/A   Clear
1:54 AM 59.0 °F 41.0 °F 51% 29.96 in 10.0 mi West 5.8 mph - N/A   Clear
2:54 AM 60.1 °F 42.1 °F 51% 29.93 in 10.0 mi WNW 3.5 mph - N/A   Clear
3:54 AM 60.1 °F 42.1 °F 51% 29.91 in 10.0 mi West 8.1 mph - N/A   Clear
4:54 AM 62.1 °F 43.0 °F 50% 29.89 in 10.0 mi WSW 10.4 mph - N/A   Clear
5:54 AM 62.1 °F 43.0 °F 50% 29.88 in 10.0 mi West 16.1 mph - N/A   Clear
6:54 AM 64.9 °F 43.0 °F 45% 29.87 in 10.0 mi West 18.4 mph - N/A   Clear
7:54 AM 71.1 °F 42.1 °F 35% 29.86 in 10.0 mi WSW 18.4 mph 25.3 mph N/A   Clear
8:54 AM 79.0 °F 37.9 °F 23% 29.84 in 10.0 mi WSW 18.4 mph 25.3 mph N/A   Clear
9:54 AM 84.9 °F 37.0 °F 18% 29.79 in 10.0 mi WSW 16.1 mph 23.0 mph N/A   Clear
10:54 AM 89.1 °F 23.0 °F 9% 29.77 in 10.0 mi NW 17.3 mph 24.2 mph N/A   Clear
11:12 AM 89.6 °F 19.4 °F 8% 30.03 in 10.0 mi WNW 20.7 mph 25.3 mph N/A   Clear
11:54 AM 91.0 °F 18.0 °F 7% 29.74 in 10.0 mi WNW 12.7 mph 25.3 mph N/A   Clear
12:54 PM 91.9 °F 21.0 °F 8% 29.70 in 10.0 mi NNW 13.8 mph 24.2 mph N/A   Clear
1:54 PM 93.9 °F 21.9 °F 7% 29.67 in 10.0 mi NW 12.7 mph - N/A   Clear
2:54 PM 95.0 °F 21.9 °F 7% 29.63 in 10.0 mi NW 13.8 mph 25.3 mph N/A   Clear
3:01 PM 95.0 °F 19.4 °F 6% 29.92 in 10.0 mi WNW 18.4 mph 26.5 mph N/A   Clear
3:54 PM 95.0 °F 21.9 °F 7% 29.60 in 10.0 mi WNW 11.5 mph 23.0 mph N/A   Clear
4:54 PM 95.0 °F 21.9 °F 7% 29.57 in 10.0 mi NW 15.0 mph 19.6 mph N/A   Clear
5:54 PM 95.0 °F 21.0 °F 7% 29.55 in 10.0 mi NNW 11.5 mph 19.6 mph N/A   Clear
6:54 PM 93.0 °F 19.0 °F 7% 29.54 in 10.0 mi WNW 11.5 mph 20.7 mph N/A   Clear
7:54 PM 87.1 °F 19.9 °F 8% 29.54 in 10.0 mi WNW 9.2 mph - N/A   Clear
8:54 PM 77.0 °F 21.9 °F 13% 29.55 in 10.0 mi West 9.2 mph - N/A   Clear
9:54 PM 69.1 °F 21.9 °F 17% 29.57 in 10.0 mi WSW 8.1 mph - N/A   Clear
10:54 PM 72.0 °F 24.1 °F 17% 29.55 in 10.0 mi West 11.5 mph - N/A   Clear